• In Uzbekistan
  • List of Countries
  • For 7 days
  • Water Temperature
  • Satellite Maps
  • Weather Map
  • Weather Widgets
  • user-avatar
    Login

    Hourly Weather Lubango

    Today, 20 November, Tuesday

    Time Temperature Precipitation Wind Pressure Humidity
    00:00 +18°C° 0 mm 1 mps 608 mmHg 61%
    01:00 +18°C° 0 mm 1 mps 608 mmHg 65%
    02:00 +16°C° 0 mm 0 mps 608 mmHg 65%
    03:00 +15°C° 0 mm 0 mps 608 mmHg 66%
    04:00 +15°C° 0 mm 0 mps 608 mmHg 66%
    05:00 +17°C° 0 mm 0 mps 609 mmHg 60%
    06:00 +18°C° 0 mm 0 mps 610 mmHg 55%
    07:00 +20°C° 0 mm 0 mps 611 mmHg 47%
    08:00 +25°C° 0.1 mm 1 mps 612 mmHg 42%
    09:00 +27°C° 0.1 mm 1 mps 612 mmHg 36%
    10:00 +29°C° 0.1 mm 1 mps 613 mmHg 30%
    11:00 +28°C° 0.1 mm 2 mps 613 mmHg 32%
    12:00 +28°C° 0.1 mm 2 mps 612 mmHg 34%
    13:00 +28°C° 0 mm 2 mps 612 mmHg 35%
    14:00 +26°C° 0.3 mm 2 mps 611 mmHg 38%
    15:00 +25°C° 0.3 mm 2 mps 610 mmHg 41%
    16:00 +24°C° 0.3 mm 2 mps 609 mmHg 44%
    17:00 +23°C° 0.1 mm 2 mps 609 mmHg 47%
    18:00 +21°C° 0.1 mm 2 mps 609 mmHg 51%
    19:00 +21°C° 0.1 mm 1 mps 609 mmHg 54%
    20:00 +20°C° 0.1 mm 1 mps 610 mmHg 57%
    21:00 +19°C° 0.1 mm 1 mps 610 mmHg 61%
    22:00 +19°C° 0.1 mm 1 mps 610 mmHg 64%
    23:00 +16°C° 0.1 mm 0 mps 609 mmHg 66%

    Tomorrow, 21 November, Wednesday

    Time Temperature Precipitation Wind Pressure Humidity
    00:00 +16°C° 0.1 mm 0 mps 609 mmHg 68%
    01:00 +16°C° 0.1 mm 0 mps 609 mmHg 69%
    02:00 +16°C° 0.1 mm 0 mps 609 mmHg 69%
    03:00 +18°C° 0.1 mm 1 mps 609 mmHg 69%
    04:00 +18°C° 0.1 mm 1 mps 608 mmHg 69%
    05:00 +19°C° 0 mm 1 mps 609 mmHg 64%
    06:00 +20°C° 0 mm 1 mps 610 mmHg 59%
    07:00 +21°C° 0 mm 1 mps 610 mmHg 54%
    08:00 +23°C° 0.1 mm 1 mps 611 mmHg 45%
    09:00 +25°C° 0.1 mm 1 mps 612 mmHg 36%
    10:00 +27°C° 0.1 mm 1 mps 613 mmHg 27%
    11:00 +28°C° 0 mm 2 mps 613 mmHg 26%
    12:00 +29°C° 0 mm 2 mps 613 mmHg 24%
    13:00 +30°C° 0 mm 2 mps 613 mmHg 23%
    14:00 +29°C° 0 mm 3 mps 612 mmHg 26%
    15:00 +28°C° 0 mm 3 mps 611 mmHg 30%
    16:00 +26°C° 0 mm 3 mps 610 mmHg 33%
    17:00 +24°C° 0.1 mm 3 mps 610 mmHg 41%
    18:00 +23°C° 0.1 mm 2 mps 609 mmHg 48%
    19:00 +20°C° 0.1 mm 2 mps 609 mmHg 55%
    20:00 +19°C° 0 mm 2 mps 609 mmHg 61%
    21:00 +19°C° 0 mm 1 mps 609 mmHg 67%
    22:00 +18°C° 0 mm 1 mps 609 mmHg 72%
    23:00 +18°C° 0 mm 1 mps 609 mmHg 74%

    Day after tomorrow, 22 November, Thursday

    Time Temperature Precipitation Wind Pressure Humidity
    00:00 +18°C° 0 mm 1 mps 609 mmHg 76%
    01:00 +16°C° 0 mm 1 mps 609 mmHg 77%
    02:00 +16°C° 0 mm 1 mps 608 mmHg 78%
    03:00 +16°C° 0 mm 1 mps 608 mmHg 79%
    04:00 +16°C° 0 mm 1 mps 608 mmHg 80%
    05:00 +18°C° 0 mm 1 mps 608 mmHg 75%
    06:00 +17°C° 0 mm 0 mps 609 mmHg 70%
    07:00 +18°C° 0 mm 0 mps 610 mmHg 65%
    08:00 +22°C° 0 mm 1 mps 611 mmHg 55%
    09:00 +25°C° 0 mm 1 mps 612 mmHg 45%
    10:00 +27°C° 0 mm 1 mps 613 mmHg 36%
    11:00 +28°C° 0 mm 2 mps 613 mmHg 33%
    12:00 +29°C° 0 mm 2 mps 612 mmHg 31%
    13:00 +30°C° 0 mm 3 mps 612 mmHg 29%
    14:00 +29°C° 0.8 mm 3 mps 611 mmHg 34%
    15:00 +27°C° 0.8 mm 3 mps 610 mmHg 40%
    16:00 +25°C° 0.8 mm 4 mps 609 mmHg 45%
    17:00 +22°C° 1.3 mm 3 mps 609 mmHg 53%
    18:00 +21°C° 1.3 mm 3 mps 609 mmHg 61%
    19:00 +19°C° 1.3 mm 2 mps 609 mmHg 69%
    20:00 +18°C° 0.1 mm 2 mps 609 mmHg 72%
    21:00 +17°C° 0.1 mm 2 mps 609 mmHg 76%
    22:00 +18°C° 0.1 mm 1 mps 610 mmHg 79%
    23:00 +16°C° 0 mm 1 mps 609 mmHg 81%

    23 November, Friday

    Time Temperature Precipitation Wind Pressure Humidity
    00:00 +16°C° 0 mm 1 mps 609 mmHg 82%
    01:00 +16°C° 0 mm 1 mps 608 mmHg 84%
    02:00 +15°C° 0 mm 1 mps 608 mmHg 85%
    03:00 +14°C° 0 mm 0 mps 608 mmHg 85%
    04:00 +14°C° 0 mm 0 mps 608 mmHg 86%
    05:00 +15°C° 0 mm 0 mps 608 mmHg 79%
    06:00 +16°C° 0 mm 0 mps 609 mmHg 73%
    07:00 +17°C° 0 mm 0 mps 610 mmHg 66%
    08:00 +22°C° 0 mm 1 mps 611 mmHg 53%
    09:00 +25°C° 0 mm 2 mps 612 mmHg 40%
    10:00 +28°C° 0 mm 2 mps 613 mmHg 26%
    11:00 +29°C° 0 mm 2 mps 613 mmHg 24%
    12:00 +31°C° 0 mm 2 mps 612 mmHg 21%
    13:00 +32°C° 0 mm 2 mps 612 mmHg 19%
    14:00 +31°C° 0 mm 3 mps 611 mmHg 22%
    15:00 +30°C° 0 mm 4 mps 610 mmHg 25%
    16:00 +30°C° 0 mm 4 mps 610 mmHg 27%
    17:00 +27°C° 0 mm 4 mps 609 mmHg 38%
    18:00 +24°C° 0 mm 3 mps 609 mmHg 50%
    19:00 +20°C° 0 mm 3 mps 608 mmHg 61%
    20:00 +19°C° 0 mm 3 mps 608 mmHg 66%
    21:00 +18°C° 0 mm 2 mps 609 mmHg 71%
    22:00 +17°C° 0 mm 2 mps 609 mmHg 76%
    23:00 +18°C° 0 mm 1 mps 609 mmHg 78%

    24 November, Saturday

    Time Temperature Precipitation Wind Pressure Humidity
    00:00 +16°C° 0 mm 1 mps 608 mmHg 80%
    01:00 +15°C° 0 mm 1 mps 608 mmHg 82%
    02:00 +15°C° 0 mm 1 mps 608 mmHg 82%
    03:00 +15°C° 0 mm 1 mps 608 mmHg 82%
    04:00 +14°C° 0 mm 0 mps 607 mmHg 83%
    05:00 +15°C° 0 mm 0 mps 608 mmHg 75%
    06:00 +18°C° 0 mm 1 mps 609 mmHg 67%
    07:00 +20°C° 0 mm 1 mps 610 mmHg 59%
    08:00 +22°C° 0 mm 1 mps 611 mmHg 48%
    09:00 +25°C° 0 mm 2 mps 612 mmHg 37%
    10:00 +27°C° 0 mm 2 mps 613 mmHg 27%
    11:00 +29°C° 0 mm 2 mps 612 mmHg 25%
    12:00 +30°C° 0 mm 3 mps 612 mmHg 23%
    13:00 +31°C° 0 mm 3 mps 612 mmHg 22%
    14:00 +30°C° 0 mm 3 mps 611 mmHg 24%
    15:00 +29°C° 0 mm 4 mps 610 mmHg 27%
    16:00 +27°C° 0 mm 4 mps 609 mmHg 30%
    17:00 +25°C° 0 mm 4 mps 609 mmHg 36%
    18:00 +22°C° 0 mm 3 mps 609 mmHg 43%
    19:00 +20°C° 0 mm 3 mps 609 mmHg 49%
    20:00 +19°C° 0 mm 2 mps 609 mmHg 54%
    21:00 +18°C° 0 mm 2 mps 609 mmHg 58%
    22:00 +17°C° 0 mm 2 mps 609 mmHg 62%
    23:00 +16°C° 0 mm 1 mps 609 mmHg 64%

    25 November, Sunday

    Time Temperature Precipitation Wind Pressure Humidity
    00:00 +16°C° 0 mm 1 mps 608 mmHg 65%
    01:00 +15°C° 0 mm 1 mps 608 mmHg 67%
    02:00 +15°C° 0 mm 1 mps 608 mmHg 66%
    03:00 +15°C° 0 mm 1 mps 608 mmHg 65%
    04:00 +15°C° 0 mm 1 mps 607 mmHg 64%
    05:00 +16°C° 0 mm 1 mps 608 mmHg 59%
    06:00 +16°C° 0 mm 0 mps 609 mmHg 54%
    07:00 +17°C° 0 mm 0 mps 610 mmHg 48%
    08:00 +21°C° 0 mm 1 mps 610 mmHg 43%
    09:00 +23°C° 0 mm 1 mps 611 mmHg 37%
    10:00 +25°C° 0 mm 2 mps 611 mmHg 32%
    11:00 +26°C° 0 mm 2 mps 611 mmHg 28%
    12:00 +28°C° 0 mm 2 mps 611 mmHg 25%
    13:00 +30°C° 0 mm 3 mps 611 mmHg 21%
    14:00 +29°C° 0 mm 3 mps 611 mmHg 23%
    15:00 +28°C° 0 mm 3 mps 610 mmHg 24%
    16:00 +27°C° 0 mm 3 mps 609 mmHg 26%
    17:00 +25°C° 0 mm 3 mps 609 mmHg 30%
    18:00 +22°C° 0 mm 3 mps 609 mmHg 34%
    19:00 +20°C° 0 mm 2 mps 608 mmHg 39%
    20:00 +19°C° 0 mm 2 mps 608 mmHg 42%
    21:00 +18°C° 0 mm 2 mps 608 mmHg 45%
    22:00 +18°C° 0 mm 1 mps 608 mmHg 48%
    23:00 +16°C° 0 mm 1 mps 608 mmHg 50%
    Show more